Home > Weather > Saint-Jérôme > Past weeks

Flag for Canada Past Weather in Saint-Jérôme, Quebec, Canada — Yesterday and Last 2 Weeks

Now
75 °F

Partly sunny.


Feels Like: 77 °F
Forecast: 62 / 79 °F
Wind: No wind

Location: Montreal / Mirabel

Current Time: Jun 28, 2016 at 11:09:56 AM

Latest Report: Jun 28, 2016 at 10:00 AM


Visibility: 25 mi

Pressure: 29.88 "Hg

Humidity: 69%

Dew Point: 64 °F

Location of Saint-JérômeLocation

Past Weather in Saint-Jérôme — Graph

°F

Saint-Jérôme Temperature Yesterday

Maximum temperature yesterday: 79 °F (at 1:00 AM)
Minimum temperature yesterday: 66 °F (at 8:00 AM)
Average temperature yesterday: 73 °F

High & Low Weather Summary for the Past Weeks

 TemperatureHumidityPressure
High90 °F (Jun 19, 5:00 PM)100% (Jun 23, 3:00 AM)30.22 "Hg (Jun 23, 3:00 AM)
Low45 °F (Jun 14, 1:00 AM)25% (Jun 18, 4:00 PM)29.60 "Hg (Jun 20, 11:00 PM)
Average68 °F63%29.94 "Hg
* Reported Jun 13 10:00 AM — Jun 28 10:00 AM, Saint-Jérôme, Weather by CustomWeather, © 2016

Note: Actual official high and low records may vary slightly from our data, if they occured in-between our weather recording intervals... More about our weather records

Advertising

Saint-Jérôme Weather History for the Previous 24 Hours

Scroll right to see more
 ConditionsComfort  
Time TempWeatherWind HumidityBarometerVisibility
10:00 AM
Tue, Jun 28
75 °FPartly sunny.No wind69%29.88 "Hg25 mi
9:00 AM73 °FPartly sunny.3 mph74%29.87 "Hg25 mi
8:00 AM70 °FBroken clouds.2 mph88%29.87 "Hg25 mi
7:00 AM68 °FBroken clouds.2 mph88%29.86 "Hg25 mi
6:00 AM68 °FPartly cloudy.No wind88%29.84 "Hg25 mi
5:00 AM68 °FPassing clouds.3 mph88%29.83 "Hg25 mi
4:00 AM70 °FPassing clouds.3 mph83%29.82 "Hg25 mi
3:00 AM70 °FOvercast.2 mph83%29.83 "Hg25 mi
2:00 AM70 °FPassing clouds.No wind83%29.83 "Hg25 mi
1:00 AM70 °FPassing clouds.2 mph83%29.82 "Hg25 mi
12:00 AM70 °FPassing clouds.No wind83%29.82 "Hg25 mi
11:00 PM
Mon, Jun 27
72 °FPassing clouds.5 mph83%29.81 "Hg25 mi
10:00 PM73 °FPassing clouds.8 mph78%29.80 "Hg25 mi
9:00 PM70 °FPartly sunny.6 mph88%29.80 "Hg25 mi
8:00 PM72 °FPassing clouds.No wind88%29.80 "Hg45 mi
7:00 PM72 °FThunderstorms. Partly sunny.3 mph83%29.81 "Hg25 mi
6:49 PM70 °FThunderstorms. Partly sunny.5 mph88%29.80 "Hg25 mi
6:03 PM79 °FThunderstorms. Scattered clouds.10 mph74%29.80 "Hg20 mi
5:00 PM79 °FPartly sunny.10 mph74%29.80 "Hg20 mi
4:00 PM79 °FPartly sunny.13 mph74%29.81 "Hg20 mi
3:00 PM77 °FPartly sunny.10 mph79%29.82 "Hg15 mi
2:00 PM73 °FOvercast.10 mph89%29.83 "Hg10 mi
1:00 PM72 °FMostly cloudy.7 mph88%29.85 "Hg10 mi
12:00 PM70 °FMostly cloudy.7 mph94%29.86 "Hg15 mi
11:00 AM70 °FMostly cloudy.9 mph88%29.86 "Hg8 mi
Weather by CustomWeather, © 2016

See weather overviewHow to use our weather pages